[[{"header":{"parameterUnit":"m.s-1","parameterCategory":1,"la1":30.2991,"la2":30.254,"lo1":-89.0895,"lo2":-89.0444,"dy":0.0017,"dx":0.0017,"nx":28,"ny":28,"refTime":"2024-07-28T03:00:00:Z","depth":0,"parameterNumber":2,"parameterNumberName":"U-component_of_WINDS"},"data":[0,0,0,0,0,0,0,0,0,0,0,0,0,0,0,0,0,0,0,0,0,0,0,0,0,0,0,0,0,0,0,0,0,0,0,0,0,0,0,0,0,0,0,0,0,0,0,0,0,0,0,0,0,0,0,0,0,0,2.5733,2.5735,0,2.5853,2.5854,2.5855,2.5853,2.5851,2.585,2.5848,2.597,2.5975,2.598,0,0,0,0,0,0,0,0,0,0,0,0,0,2.5503,2.5507,2.5733,2.5735,2.5736,2.5852,2.5854,2.5856,2.5853,2.5851,2.5849,2.5847,2.5969,2.5974,2.598,0,0,0,0,0,0,0,0,0,0,0,0,0,2.561,2.5508,2.5733,2.5749,2.5752,2.5852,2.5854,2.5856,2.5853,2.5851,2.5849,2.5846,2.5967,2.5974,2.5981,2.6073,0,0,2.6003,2.6006,0,0,0,0,0,0,0,0,2.5604,2.5619,2.5745,2.5748,2.5751,2.5835,2.5818,2.5929,2.5854,2.5815,2.5848,2.5845,2.5927,2.5938,2.5965,2.6079,2.6084,2.6003,2.6008,2.6011,2.6013,0,0,0,0,0,0,0,2.5597,2.5614,2.578,2.5747,2.5751,2.575,2.5763,2.5839,2.5883,2.5818,2.5818,2.5832,2.5929,2.5958,2.5968,2.6086,2.6003,2.601,2.6014,2.6017,2.628,2.6282,0,0,0,0,0,0,2.5586,2.5608,2.5777,2.5784,2.567,2.5756,2.577,2.5811,2.5882,2.5891,2.5834,2.5832,2.5947,2.596,2.5972,2.6083,2.6011,2.6017,2.6022,2.6277,2.628,2.6283,0,0,0,0,0,0,2.5581,2.5601,2.5772,2.5696,2.5718,2.5763,2.5808,2.5814,2.5844,2.5895,2.5903,2.5857,2.5946,2.5962,2.6048,2.6088,2.6021,2.6027,2.6274,2.6278,2.6282,2.6307,0,0,0,0,0,0,2.5575,2.5599,2.5635,2.5697,2.5722,2.5845,2.5811,2.5818,2.5856,2.5854,2.5918,2.5926,2.5945,2.6037,2.6055,2.6096,2.6033,2.627,2.6276,2.628,2.6303,2.6312,2.6319,0,0,0,0,0,2.5566,2.5638,2.5637,2.5657,2.5767,2.5848,2.5862,2.5883,2.586,2.5896,2.5928,2.5924,2.6081,2.6046,2.6066,2.611,2.6268,2.6274,2.628,2.6299,2.631,2.6319,0,0,0,0,0,0,2.5581,2.5647,2.5646,2.574,2.5788,2.5847,2.5893,2.5894,2.595,2.5945,2.5969,2.5984,2.6068,2.6098,2.6058,2.6202,2.6171,2.6182,2.6179,2.619,2.6198,2.6188,2.6039,0,0,0,0,0,2.5595,2.5655,2.5709,2.5787,2.5811,2.5848,2.5884,2.5896,2.5947,2.5967,2.6006,2.6055,2.6115,2.6155,2.6213,2.6308,2.6321,2.6348,2.6356,2.6362,2.637,2.6421,2.6433,2.6303,2.6303,2.6303,0,0,2.5625,2.5668,2.5705,2.5791,2.583,2.589,2.5865,2.5931,2.5976,2.5977,2.6059,2.6089,2.6146,2.6236,2.6278,2.6263,2.6409,2.637,2.6375,2.638,2.6428,2.644,2.6451,2.6307,2.6306,2.6306,0,0,2.5709,2.5749,2.5817,2.5856,2.5915,2.5939,2.5955,2.6014,2.6034,2.6117,2.6118,2.6172,2.6276,2.6316,2.6349,2.6448,2.6446,2.6467,2.6508,2.6557,2.6567,2.6576,2.6609,2.6621,2.6475,2.6475,2.6475,0,2.5739,2.5831,2.5852,2.5918,2.5955,2.5958,2.6026,2.6064,2.6139,2.6164,2.6147,2.6276,2.6315,2.6413,2.6437,2.6465,2.6483,2.6459,2.6564,2.6573,2.6582,2.6613,2.6626,2.6477,2.6477,2.6477,2.6476,0,2.5863,2.5926,2.5974,2.6045,2.6088,2.6155,2.6186,2.6227,2.6235,2.626,2.6344,2.639,2.6457,2.6482,2.6491,2.6581,2.657,2.6559,2.6527,2.6596,2.6626,2.6638,2.648,2.6479,2.6479,2.6478,0,0,2.5959,2.6041,2.6058,2.6089,2.6154,2.6203,2.627,2.6335,2.6368,2.642,2.6475,2.6563,2.6552,2.659,2.6604,2.6647,2.6719,2.663,2.6631,2.6642,2.6818,2.6825,2.6838,2.6718,2.6721,2.6723,2.6812,0,2.6049,2.6166,2.6187,2.6289,2.6347,2.6351,2.6409,2.6454,2.648,2.6533,2.6561,2.6622,2.6604,2.6627,2.667,2.6701,2.6754,2.6695,2.6769,2.6771,2.6752,2.6855,2.6862,2.6944,2.6825,2.6827,2.6828,0,2.6169,2.6222,2.633,2.6385,2.641,2.6462,2.6522,2.6573,2.6624,2.664,2.6682,2.669,2.6759,2.6726,2.6819,2.6779,2.681,2.683,2.6834,2.684,2.6802,2.6861,2.6972,2.6983,2.6847,2.6846,2.6844,0,2.6225,2.6325,2.6401,2.6429,2.6495,2.6531,2.6561,2.661,2.6647,2.67,2.6724,2.6785,2.6817,2.6864,2.6888,2.6862,2.6979,2.6949,2.6992,2.6991,2.7015,2.7013,2.713,2.7039,2.7039,2.7039,2.7039,0,2.6322,2.6387,2.6427,2.6474,2.6547,2.657,2.6642,2.667,2.6714,2.6766,2.6774,2.6823,2.6853,2.6906,2.6926,2.6999,2.7014,2.7028,2.7031,2.7026,2.7023,2.7045,2.7039,2.7042,2.7041,2.7041,2.704,0,2.6396,2.6426,2.6509,2.6566,2.6581,2.6632,2.668,2.6725,2.6751,2.6817,2.6833,2.6873,2.6936,2.6965,2.7043,2.7056,2.7138,2.714,2.7121,2.7122,2.7162,2.7157,2.7295,2.7314,2.7213,2.7214,2.7215,0,2.6455,2.6505,2.6566,2.6601,2.6631,2.6688,2.6726,2.6751,2.6789,2.6851,2.6889,2.6951,2.7003,2.7102,2.7138,2.7197,2.7199,2.7243,2.7208,2.7199,2.7196,2.7192,2.7196,2.7249,2.725,2.725,2.7251,0,2.6554,2.6566,2.662,2.6679,2.6723,2.6771,2.6817,2.6846,2.6878,2.6921,2.6985,2.7025,2.7103,2.7165,2.7226,2.7256,2.7259,2.7262,2.7275,2.7268,2.7254,2.7259,2.7135,2.7258,2.7258,2.7257,2.7257,2.7256,2.6621,2.6665,2.6714,2.6773,2.6811,2.6854,2.6898,2.6929,2.6982,2.7048,2.706,2.7127,2.7176,2.7258,2.7291,2.7343,2.7333,2.7352,2.7356,2.736,2.7361,2.7247,2.7355,2.7355,2.7355,2.7355,2.7354,0,2.6719,2.675,2.6805,2.6869,2.6915,2.6914,2.6965,2.7004,2.7062,2.7108,2.7158,2.723,2.729,2.733,2.739,2.7424,2.7427,2.7439,2.7436,2.7442,2.7368,2.735,2.7436,2.7436,2.7436,2.7436,2.7436,2.7436,2.6775,2.6848,2.6865,2.6957,2.6988,2.7054,2.7083,2.7122,2.7158,2.7238,2.7288,2.7313,2.7357,2.742,2.7474,2.7484,2.7505,2.7517,2.7527,2.7456,2.7448,2.7439,2.7422,2.7522,2.7522,2.7596,2.7597,2.7597]},{"header":{"parameterUnit":"m.s-1","parameterCategory":1,"la1":30.2991,"la2":30.254,"lo1":-89.0895,"lo2":-89.0444,"dy":0.0017,"dx":0.0017,"nx":28,"ny":28,"refTime":"2024-07-28T03:00:00:Z","depth":0,"parameterNumber":3,"parameterNumberName":"V-component_of_WINDS"},"data":[0,0,0,0,0,0,0,0,0,0,0,0,0,0,0,0,0,0,0,0,0,0,0,0,0,0,0,0,0,0,0,0,0,0,0,0,0,0,0,0,0,0,0,0,0,0,0,0,0,0,0,0,0,0,0,0,0,0,0.9396,0.9397,0,0.9438,0.9439,0.9439,0.94,0.9399,0.9397,0.9396,0.9441,0.9443,0.9446,0,0,0,0,0,0,0,0,0,0,0,0,0,0.9283,0.9285,0.9396,0.9397,0.9397,0.9438,0.9439,0.9439,0.9401,0.9399,0.9397,0.9395,0.944,0.9443,0.9446,0,0,0,0,0,0,0,0,0,0,0,0,0,0.9329,0.9286,0.9396,0.9383,0.9382,0.9438,0.9439,0.9439,0.9401,0.9399,0.9396,0.9394,0.9439,0.9442,0.9446,0.9518,0,0,0.9459,0.946,0,0,0,0,0,0,0,0,0.9327,0.9334,0.9384,0.9384,0.9383,0.9411,0.9415,0.9466,0.9402,0.9394,0.9396,0.9393,0.9433,0.9437,0.945,0.952,0.9522,0.9459,0.9461,0.9463,0.9464,0,0,0,0,0,0,0,0.9324,0.9332,0.9413,0.9385,0.9384,0.9375,0.9379,0.9425,0.9426,0.9394,0.9392,0.9397,0.9432,0.9447,0.9451,0.9523,0.9459,0.9462,0.9465,0.9466,0.9652,0.9655,0,0,0,0,0,0,0.9322,0.9329,0.9411,0.9414,0.9349,0.9379,0.9383,0.9405,0.9425,0.9426,0.9399,0.9395,0.9441,0.9446,0.9452,0.9537,0.9463,0.9467,0.9469,0.965,0.9653,0.9656,0,0,0,0,0,0,0.9319,0.9329,0.941,0.9371,0.938,0.9383,0.9408,0.9407,0.9421,0.9429,0.9429,0.9413,0.9439,0.9447,0.9502,0.9538,0.9468,0.9472,0.9647,0.9651,0.9654,0.9708,0,0,0,0,0,0,0.9316,0.9329,0.9356,0.9372,0.9383,0.9458,0.941,0.9409,0.9428,0.9423,0.9443,0.9444,0.9438,0.9496,0.9506,0.9543,0.9475,0.9643,0.9648,0.9653,0.9703,0.9713,0.9722,0,0,0,0,0,0.9313,0.937,0.9358,0.9368,0.9417,0.946,0.9467,0.9459,0.9431,0.9459,0.9463,0.9443,0.9532,0.9502,0.9512,0.9551,0.9641,0.9647,0.9653,0.9699,0.9711,0.9722,0,0,0,0,0,0,0.936,0.9372,0.9358,0.9423,0.9441,0.9454,0.9488,0.9472,0.9499,0.9493,0.9483,0.9487,0.9545,0.9553,0.9519,0.9621,0.9582,0.9591,0.9614,0.9626,0.9635,0.9632,0.9479,0,0,0,0,0,0.9377,0.9412,0.9421,0.9477,0.9486,0.9486,0.9504,0.9496,0.9515,0.9523,0.9531,0.9551,0.9583,0.9604,0.9635,0.9703,0.9707,0.9735,0.9745,0.9752,0.976,0.9796,0.9809,0.9674,0.9674,0.9674,0,0,0.9415,0.9426,0.9448,0.9486,0.9499,0.9535,0.9492,0.9532,0.9559,0.9529,0.9581,0.9588,0.9608,0.967,0.9698,0.9679,0.9798,0.976,0.9766,0.9769,0.9804,0.9816,0.9828,0.9678,0.9678,0.9677,0,0,0.9501,0.9513,0.9561,0.9574,0.9594,0.9593,0.9604,0.962,0.9623,0.9675,0.9653,0.9684,0.974,0.9755,0.9771,0.9861,0.9843,0.9871,0.9921,0.9957,0.9968,0.9977,1.0009,1.0021,0.9878,0.9878,0.9879,0,0.9546,0.9599,0.9587,0.9629,0.9646,0.9619,0.9667,0.9681,0.971,0.9723,0.97,0.9769,0.9781,0.9846,0.9868,0.9881,0.9894,0.987,0.9967,0.9976,0.9985,1.0016,1.0028,0.9882,0.9881,0.9881,0.9881,0,0.9652,0.9689,0.9725,0.9753,0.9774,0.9818,0.9814,0.9837,0.9826,0.9828,0.9881,0.9894,0.9926,0.994,0.9931,1.0004,0.9991,0.9968,0.9929,1.0001,1.003,1.0042,0.9886,0.9885,0.9884,0.9883,0,0,0.9771,0.9791,0.9804,0.9816,0.9835,0.9864,0.9907,0.9937,0.9957,0.9977,1.0013,1.0061,1.0039,1.0056,1.0048,1.0079,1.015,1.0052,1.0053,1.007,1.0231,1.0249,1.0263,1.0138,1.014,1.0142,1.023,0,0.9859,0.9933,0.9923,0.9995,1.0029,1.0003,1.004,1.0056,1.0058,1.0087,1.0089,1.0123,1.0091,1.0102,1.0131,1.0135,1.0182,1.0129,1.0172,1.0174,1.0169,1.0278,1.0297,1.038,1.0241,1.0243,1.0244,0,0.9971,0.9994,1.0069,1.0082,1.0096,1.013,1.0157,1.0184,1.0202,1.0201,1.0219,1.0205,1.0248,1.0207,1.0267,1.023,1.0247,1.0252,1.0254,1.0259,1.0214,1.0286,1.0406,1.0418,1.0262,1.026,1.0259,0,1.0051,1.0101,1.0152,1.0163,1.0179,1.0204,1.0212,1.0226,1.0245,1.0268,1.028,1.0309,1.0324,1.0347,1.0341,1.0311,1.0401,1.036,1.0402,1.0402,1.0423,1.0422,1.0548,1.0433,1.0433,1.0432,1.0432,0,1.015,1.0197,1.0188,1.022,1.0271,1.0259,1.0311,1.0315,1.0328,1.036,1.0339,1.037,1.036,1.039,1.0385,1.0435,1.0442,1.0443,1.0441,1.0445,1.0445,1.0457,1.0452,1.0436,1.0435,1.0434,1.0434,0,1.0249,1.0245,1.0298,1.0309,1.0313,1.035,1.0359,1.0389,1.0388,1.0429,1.0438,1.0438,1.0472,1.0467,1.0506,1.0503,1.0565,1.0556,1.0559,1.0557,1.06,1.0596,1.0738,1.0756,1.0629,1.063,1.0631,0,1.0313,1.0348,1.0362,1.0381,1.0391,1.0423,1.0441,1.0431,1.0451,1.0472,1.0499,1.0531,1.0556,1.0612,1.0615,1.0644,1.0636,1.0684,1.0641,1.0644,1.0638,1.0636,1.064,1.0693,1.0695,1.0696,1.0697,0,1.0427,1.0423,1.045,1.0477,1.0499,1.052,1.0538,1.0556,1.0546,1.057,1.0604,1.0624,1.0662,1.0694,1.0721,1.0729,1.0712,1.071,1.0721,1.0727,1.0727,1.0728,1.0583,1.0707,1.0706,1.0705,1.0705,1.0704,1.051,1.054,1.0555,1.0586,1.0598,1.0615,1.0644,1.0646,1.0674,1.0704,1.0696,1.0735,1.075,1.0784,1.0795,1.0825,1.0808,1.0825,1.0829,1.0833,1.0839,1.0721,1.083,1.083,1.083,1.0829,1.0829,0,1.0624,1.0631,1.066,1.0686,1.071,1.069,1.0709,1.0731,1.0765,1.0781,1.0805,1.0844,1.0875,1.088,1.0909,1.0932,1.0925,1.0941,1.0939,1.0941,1.0852,1.084,1.0946,1.0946,1.0946,1.0946,1.0946,1.0946,1.0686,1.0735,1.0733,1.0788,1.0795,1.0832,1.0845,1.0861,1.0873,1.0917,1.0942,1.0945,1.0956,1.0986,1.1013,1.1014,1.1026,1.1045,1.1042,1.0959,1.0948,1.0937,1.0925,1.1047,1.1047,1.1129,1.113,1.113]}]]